Main page
METAR-TAF:

METAR-TAF

Airports :

Chapecó Airport

Chapecó, Santa Catarina, Brazil

latitude: 27-08-02S, longitude: 052-39-43W, elevation: 654 m

Current weather observation

The report was made 38 minutes ago, at 16:00 UTC
Wind 6 kt from the West/Southwest
Temperature 28°C
Humidity 58%
Pressure 1017 hPa
Visibility 10 km or more
Broken clouds at a height of 2000 ft

METAR: SBCH 211600Z 24006KT 9999 BKN020 28/19 Q1017

Time: 13:38 (16:38 UTC)


TAF: missing

Weather observations and forecasts of more than 4000 airports (METAR and TAF reports).

The available stations are represented by yellow and red dots on the map.

Hover mouse over dot to see the name of the station.

Then click to see weather observations and forecasts.

To change the map : click on the green buttons with a black cross to zoom in, on the green button with a dash to zoom out, or on the green arrows for adjacent maps.


METAR-TAF: